TimeIST,TemperatureF,Dew PointF,Humidity,Sea Level PressureIn,VisibilityMPH,Wind Direction,Wind SpeedMPH,Gust SpeedMPH,PrecipitationIn,Events,Conditions,WindDirDegrees,DateUTC
12:00 AM,48.2,44.6,87,29.95,6.2,NW,4.6,-,N/A,,Mostly Cloudy,320,2013-09-05 23:00:00
12:30 AM,48.2,44.6,87,29.95,6.2,WNW,3.5,-,N/A,,Mostly Cloudy,290,2013-09-05 23:30:00
1:00 AM,49,46,83,29.96,12,NW,4.5,,,Rain,Light Rain Showers,320,2013-09-06 00:00:00
1:00 AM,48.2,46.4,93,29.95,6.2,NW,4.6,-,N/A,,Mostly Cloudy,320,2013-09-06 00:00:00
1:30 AM,48.2,46.4,93,29.95,6.2,North,4.6,-,N/A,,Mostly Cloudy,360,2013-09-06 00:30:00
2:00 AM,48.2,46.4,93,29.95,6.2,WSW,3.5,-,N/A,,Mostly Cloudy,240,2013-09-06 01:00:00
2:30 AM,50.0,46.4,87,29.95,6.2,NW,5.8,-,N/A,,Mostly Cloudy,310,2013-09-06 01:30:00
3:00 AM,50.0,46.4,87,29.92,6.2,WNW,4.6,-,N/A,Rain,Light Rain Showers,300,2013-09-06 02:00:00
3:30 AM,48.2,46.4,93,29.92,6.2,NNW,6.9,-,N/A,Rain,Light Rain Showers,330,2013-09-06 02:30:00
4:00 AM,48.2,46.4,93,29.92,6.2,NNW,6.9,-,N/A,Rain,Light Rain Showers,330,2013-09-06 03:00:00
4:30 AM,48.2,46.4,93,29.95,6.2,North,8.1,-,N/A,Rain,Light Rain Showers,350,2013-09-06 03:30:00
5:00 AM,48.2,46.4,93,29.95,6.2,NW,8.1,-,N/A,Rain,Light Rain Showers,320,2013-09-06 04:00:00
5:30 AM,48.2,46.4,93,29.95,6.2,NW,6.9,-,N/A,Rain,Light Rain,320,2013-09-06 04:30:00
6:00 AM,48.2,46.4,93,29.95,6.2,North,5.8,-,N/A,Rain,Light Rain,350,2013-09-06 05:00:00
6:30 AM,46.4,46.4,100,29.95,6.2,NNW,5.8,-,N/A,Rain,Light Rain,340,2013-09-06 05:30:00
7:00 AM,48.2,46.4,93,29.95,6.2,NNW,5.8,-,N/A,,Mostly Cloudy,330,2013-09-06 06:00:00
7:30 AM,48.2,46.4,93,29.95,6.2,NNW,8.1,-,N/A,,Mostly Cloudy,330,2013-09-06 06:30:00
8:00 AM,48.2,46.4,93,29.95,6.2,NW,5.8,-,N/A,,Mostly Cloudy,320,2013-09-06 07:00:00
8:30 AM,48.2,46.4,93,29.95,6.2,North,5.8,-,N/A,,Mostly Cloudy,350,2013-09-06 07:30:00
9:00 AM,48.2,46.4,93,29.95,6.2,NNW,6.9,-,N/A,,Scattered Clouds,340,2013-09-06 08:00:00
9:30 AM,50.0,46.4,87,29.95,6.2,NNW,8.1,-,N/A,,Partly Cloudy,340,2013-09-06 08:30:00
10:00 AM,51.8,46.4,82,29.95,6.2,North,8.1,-,N/A,,Partly Cloudy,350,2013-09-06 09:00:00
10:30 AM,53.6,46.4,77,29.95,6.2,NNW,11.5,-,N/A,,Scattered Clouds,330,2013-09-06 09:30:00
11:00 AM,53.6,46.4,77,29.95,6.2,North,11.5,-,N/A,,Partly Cloudy,350,2013-09-06 10:00:00
11:30 AM,55.4,44.6,67,29.95,6.2,North,10.4,-,N/A,,Partly Cloudy,350,2013-09-06 10:30:00
12:00 PM,55.4,46.4,72,29.95,6.2,North,12.7,-,N/A,,Partly Cloudy,350,2013-09-06 11:00:00
12:30 PM,55.4,44.6,67,29.95,6.2,NNW,11.5,-,N/A,,Mostly Cloudy,340,2013-09-06 11:30:00
1:00 PM,57,44,50,29.96,31,NNW,13.4,,,,Mostly Cloudy,340,2013-09-06 12:00:00
1:00 PM,57.2,42.8,59,29.95,6.2,NNW,12.7,-,N/A,,Scattered Clouds,340,2013-09-06 12:00:00
1:30 PM,59.0,44.6,59,29.95,6.2,NNW,12.7,-,N/A,,Scattered Clouds,330,2013-09-06 12:30:00
2:00 PM,57.2,42.8,59,29.95,6.2,North,10.4,-,N/A,,Scattered Clouds,350,2013-09-06 13:00:00
2:30 PM,53.6,42.8,67,29.95,6.2,NNW,19.6,-,N/A,,Mostly Cloudy,340,2013-09-06 13:30:00
3:00 PM,51.8,46.4,82,29.95,6.2,NW,6.9,-,N/A,,Mostly Cloudy,320,2013-09-06 14:00:00
3:30 PM,55.4,46.4,72,29.95,6.2,North,11.5,-,N/A,Rain,Light Rain Showers,10,2013-09-06 14:30:00
4:00 PM,57.2,44.6,63,29.95,6.2,NW,11.5,-,N/A,Rain,Light Rain Showers,320,2013-09-06 15:00:00
4:30 PM,57.2,44.6,63,29.92,6.2,NNW,11.5,-,N/A,,Partly Cloudy,340,2013-09-06 15:30:00
5:00 PM,55.4,46.4,72,29.95,6.2,NW,10.4,-,N/A,,Scattered Clouds,320,2013-09-06 16:00:00
5:30 PM,53.6,44.6,72,29.95,3.1,NNE,20.7,-,N/A,Rain-Thunderstorm,Rain Showers,20,2013-09-06 16:30:00
6:00 PM,50.0,46.4,87,29.95,6.2,NNE,6.9,-,N/A,,Mostly Cloudy,20,2013-09-06 17:00:00
6:30 PM,51.8,48.2,88,29.95,6.2,NW,6.9,-,N/A,,Mostly Cloudy,310,2013-09-06 17:30:00
7:00 PM,52,46,75,29.97,25,NNW,8.9,,,,Partly Cloudy,340,2013-09-06 18:00:00
7:00 PM,51.8,46.4,82,29.95,6.2,NNW,8.1,-,N/A,,Scattered Clouds,340,2013-09-06 18:00:00
7:30 PM,55.4,48.2,77,29.95,6.2,NNE,17.3,-,N/A,,Scattered Clouds,20,2013-09-06 18:30:00
8:00 PM,53.6,46.4,77,29.98,6.2,NNW,9.2,-,N/A,,Scattered Clouds,340,2013-09-06 19:00:00
8:30 PM,53.6,46.4,77,29.98,6.2,NNW,10.4,-,N/A,,Scattered Clouds,330,2013-09-06 19:30:00
9:00 PM,51.8,46.4,82,29.98,6.2,NNW,9.2,-,N/A,,Partly Cloudy,330,2013-09-06 20:00:00
9:30 PM,50.0,46.4,87,29.98,6.2,NW,9.2,-,N/A,,Partly Cloudy,320,2013-09-06 20:30:00
10:00 PM,50.0,46.4,87,29.98,6.2,NW,8.1,-,N/A,,Partly Cloudy,310,2013-09-06 21:00:00
10:30 PM,50.0,46.4,87,29.98,-9999.0,NW,10.4,-,N/A,,Clear,320,2013-09-06 21:30:00
11:00 PM,48.2,46.4,93,29.98,-9999.0,NW,9.2,-,N/A,,Clear,310,2013-09-06 22:00:00
11:30 PM,48.2,44.6,87,29.98,-9999.0,WNW,8.1,-,N/A,,Clear,300,2013-09-06 22:30:00